Weather History for KIAB - September, 2013

Change the Weather History Date:

Monday, September 16, 2013

  Actual Average Record
Temperature  
Mean Temperature 70 °F -  
Max Temperature 76 °F 79 °F 95 °F (1997)
Min Temperature 65 °F 59 °F 48 °F (2011)
Cooling Degree Days 6    
Growing Degree Days 20 (Base 50)    
Moisture  
Dew Point 68 °F    
Average Humidity 99    
Maximum Humidity 100    
Minimum Humidity 82    
Precipitation  
Precipitation 0.03 in - - ()
Sea Level Pressure  
Sea Level Pressure 30.15 in    
Wind  
Wind Speed 10 mph (ENE)    
Max Wind Speed 16 mph    
Max Gust Speed -    
Visibility 7 miles    
Events Rain    
Averages and records for this station are not official NWS values.
T = Trace of Precipitation, MM = Missing Value Source: NWS Daily Summary

Daily Weather History Graph

Daily Weather History Graph

Search for Another Location

Airport or City:

Trip Planner

Search our weather history database for the weather conditions in past years. The results will help you decide how hot, cold, wet, or windy it might be!

Date:

Astronomy

Sep. 16, 2013 Rise Set
Actual Time 7:12 AM CDT 7:34 PM CDT
Civil Twilight 6:45 AM CDT 8:01 PM CDT
Nautical Twilight 6:14 AM CDT 8:31 PM CDT
Astronomical Twilight 5:43 AM CDT 9:03 PM CDT
Moon 5:42 PM CDT (9/16) 4:02 AM CDT (9/16)
Length of Visible Light 13h 15m
Length of Day
12h 22m
Waxing Gibbous, 90% of the Moon is Illuminated
Sep 16
Waxing Gibbous
Sep 19
Full
Sep 26
Last Quarter
Oct 4
New
Oct 11
First Quarter

Hourly Weather History & Observations

Time (CDT) Temp. Dew Point Humidity Pressure Visibility Wind Dir Wind Speed Gust Speed Precip Events Conditions
12:04 AM 68.0 °F 68.0 °F 100% 30.10 in 9.0 mi North 13.8 mph - N/A   Overcast
12:09 AM 68.0 °F 68.0 °F 100% 30.11 in 8.0 mi North 12.7 mph - N/A   Overcast
12:44 AM 68.0 °F 68.0 °F 100% 30.10 in 9.0 mi North 15.0 mph - N/A   Overcast
12:58 AM 67.5 °F 67.5 °F 100% 30.07 in 10.0 mi NE 13.8 mph - N/A   Overcast
1:03 AM 68.0 °F 68.0 °F 100% 30.10 in 10.0 mi NE 16.1 mph - N/A   Overcast
1:58 AM 66.9 °F 66.9 °F 100% 30.09 in 10.0 mi NE 12.7 mph - N/A   Overcast
2:55 AM 66.2 °F 66.2 °F 100% 30.11 in 10.0 mi NE 12.7 mph - N/A   Overcast
2:58 AM 66.9 °F 66.9 °F 100% 30.09 in 10.0 mi NE 11.5 mph - N/A   Overcast
3:18 AM 66.2 °F 66.2 °F 100% 30.12 in 10.0 mi NE 11.5 mph - N/A   Overcast
3:25 AM 66.2 °F 66.2 °F 100% 30.13 in 9.0 mi NE 11.5 mph - N/A   Light Drizzle
3:35 AM 66.2 °F 66.2 °F 100% 30.13 in 5.0 mi NE 11.5 mph - N/A   Light Drizzle
3:40 AM 66.2 °F 66.2 °F 100% 30.14 in 4.0 mi NE 12.7 mph - N/A Rain Rain
3:45 AM 66.2 °F 66.2 °F 100% 30.13 in 6.0 mi NE 12.7 mph - N/A Rain Light Rain
3:50 AM 66.2 °F 66.2 °F 100% 30.13 in 7.0 mi NE 13.8 mph - N/A Rain Light Rain
3:57 AM 66.2 °F 66.2 °F 100% 30.13 in 7.0 mi NE 11.5 mph - N/A   Overcast
3:58 AM 66.2 °F 66.2 °F 100% 30.10 in 7.0 mi NE 12.7 mph - 0.01 in   Overcast
4:13 AM 66.2 °F 66.2 °F 100% 30.13 in 7.0 mi ENE 10.4 mph - N/A   Overcast
4:33 AM 66.2 °F 66.2 °F 100% 30.14 in 6.0 mi ENE 10.4 mph - N/A   Overcast
4:48 AM 66.2 °F 66.2 °F 100% 30.14 in 7.0 mi ENE 10.4 mph - N/A   Overcast
4:58 AM 65.8 °F 65.8 °F 100% 30.11 in 6.0 mi ENE 11.5 mph - 0.00 in   Overcast
5:08 AM 66.2 °F 66.2 °F 100% 30.14 in 6.0 mi ENE 10.4 mph - N/A   Overcast
5:48 AM 66.2 °F 66.2 °F 100% 30.16 in 5.0 mi ENE 6.9 mph - N/A   Overcast
5:53 AM 66.2 °F 66.2 °F 100% 30.16 in 5.0 mi NE 5.8 mph - N/A   Overcast
5:58 AM 65.8 °F 65.8 °F 100% 30.13 in 5.0 mi NE 9.2 mph - N/A   Overcast
6:18 AM 66.2 °F 66.2 °F 100% 30.16 in 4.0 mi NE 10.4 mph - N/A   Overcast
6:19 AM 66.2 °F 66.2 °F 100% 30.16 in 4.0 mi NE 10.4 mph - N/A Rain Light Rain
6:29 AM 66.2 °F 66.2 °F 100% 30.16 in 4.0 mi NE 10.4 mph - N/A Rain Light Rain
6:58 AM 65.7 °F 65.7 °F 100% 30.17 in 3.0 mi NE 6.9 mph - 0.00 in   Light Drizzle
6:59 AM 66.2 °F 66.2 °F 100% 30.18 in 4.0 mi NE 6.9 mph - N/A   Overcast
7:24 AM 66.2 °F 66.2 °F 100% 30.20 in 2.5 mi ENE 5.8 mph - N/A   Overcast
7:29 AM 66.2 °F 66.2 °F 100% 30.20 in 2.0 mi ENE 5.8 mph - N/A   Overcast
7:34 AM 66.2 °F 66.2 °F 100% 30.20 in 1.8 mi ENE 4.6 mph - N/A   Overcast
7:47 AM 66.2 °F 66.2 °F 100% 30.20 in 1.2 mi ENE 5.8 mph - N/A Rain Light Rain
7:52 AM 66.2 °F 66.2 °F 100% 30.20 in 1.5 mi ENE 5.8 mph - N/A Rain Light Rain
7:58 AM 66.0 °F 66.0 °F 100% 30.18 in 1.5 mi ENE 6.9 mph - 0.00 in Rain Light Rain
8:03 AM 66.2 °F 66.2 °F 100% 30.20 in 1.5 mi ENE 6.9 mph - N/A   Overcast
8:18 AM 66.2 °F 66.2 °F 100% 30.20 in 2.0 mi ENE 5.8 mph - N/A   Overcast
8:33 AM 66.2 °F 66.2 °F 100% 30.19 in 2.5 mi ENE 9.2 mph - N/A   Overcast
8:48 AM 66.2 °F 66.2 °F 100% 30.19 in 3.0 mi ENE 9.2 mph - N/A   Overcast
8:54 AM 66.2 °F 66.2 °F 100% 30.19 in 4.0 mi ENE 9.2 mph - N/A Rain Light Rain
8:58 AM 66.2 °F 66.2 °F 100% 30.17 in 4.0 mi ENE 10.4 mph - 0.00 in   Light Drizzle
9:07 AM 66.2 °F 66.2 °F 100% 30.18 in 4.0 mi ENE 12.7 mph - N/A   Overcast
9:11 AM 66.2 °F 66.2 °F 100% 30.18 in 4.0 mi ENE 9.2 mph - N/A Rain Light Rain
9:31 AM 66.2 °F 66.2 °F 100% 30.18 in 6.0 mi NE 8.1 mph - N/A   Overcast
9:35 AM 66.2 °F 66.2 °F 100% 30.18 in 7.0 mi NE 10.4 mph - N/A   Light Drizzle
9:40 AM 66.2 °F 66.2 °F 100% 30.18 in 6.0 mi ENE 10.4 mph - N/A   Light Drizzle
9:46 AM 66.2 °F 66.2 °F 100% 30.18 in 7.0 mi East 11.5 mph - N/A   Overcast
9:49 AM 66.2 °F 66.2 °F 100% 30.18 in 7.0 mi East 9.2 mph - N/A   Light Drizzle
9:54 AM 66.2 °F 66.2 °F 100% 30.18 in 7.0 mi East 9.2 mph - N/A   Light Drizzle
9:58 AM 66.9 °F 66.9 °F 100% 30.17 in 8.0 mi East 9.2 mph - 0.01 in   Light Drizzle
10:02 AM 68.0 °F 68.0 °F 100% 30.18 in 8.0 mi East 10.4 mph - N/A   Overcast
10:07 AM 68.0 °F 68.0 °F 100% 30.18 in 9.0 mi East 10.4 mph - N/A   Light Drizzle
10:16 AM 68.0 °F 68.0 °F 100% 30.19 in 9.0 mi East 10.4 mph - N/A   Overcast
10:41 AM 68.0 °F 68.0 °F 100% 30.19 in 9.0 mi East 10.4 mph - N/A   Overcast
10:58 AM 67.8 °F 67.8 °F 100% 30.17 in 8.0 mi East 10.4 mph - 0.00 in   Overcast
11:08 AM 68.0 °F 68.0 °F 100% 30.19 in 7.0 mi East 8.1 mph - N/A   Overcast
11:38 AM 69.8 °F 69.8 °F 100% 30.18 in 9.0 mi East 8.1 mph - N/A   Overcast
11:58 AM 69.4 °F 69.4 °F 100% 30.17 in 10.0 mi East 6.9 mph - N/A   Overcast
12:18 PM 69.8 °F 69.8 °F 100% 30.18 in 10.0 mi ESE 6.9 mph - N/A   Overcast
12:41 PM 71.6 °F 71.6 °F 100% 30.19 in 10.0 mi East 5.8 mph - N/A   Overcast
12:46 PM 71.6 °F 71.6 °F 100% 30.19 in 10.0 mi East 4.6 mph - N/A   Overcast
12:58 PM 71.2 °F 71.2 °F 100% 30.17 in 10.0 mi SE 4.6 mph - N/A   Overcast
1:03 PM 71.6 °F 71.6 °F 100% 30.19 in 10.0 mi SSE 8.1 mph - N/A   Overcast
1:08 PM 71.6 °F 71.6 °F 100% 30.19 in 10.0 mi SE 5.8 mph - N/A   Overcast
1:13 PM 71.6 °F 71.6 °F 100% 30.19 in 10.0 mi SE 5.8 mph - N/A   Overcast
1:38 PM 71.6 °F 71.6 °F 100% 30.19 in 10.0 mi SE 5.8 mph - N/A   Overcast
1:58 PM 72.7 °F 72.0 °F 98% 30.17 in 10.0 mi ESE 5.8 mph - N/A   Overcast
2:03 PM 73.4 °F 71.6 °F 94% 30.17 in 10.0 mi SE 5.8 mph - N/A   Overcast
2:28 PM 73.4 °F 71.6 °F 94% 30.17 in 10.0 mi East 6.9 mph - N/A   Mostly Cloudy
2:33 PM 73.4 °F 71.6 °F 94% 30.16 in 10.0 mi Variable 5.8 mph - N/A   Mostly Cloudy
2:38 PM 73.4 °F 71.6 °F 94% 30.16 in 10.0 mi ESE 5.8 mph - N/A   Mostly Cloudy
2:58 PM 75.0 °F 70.9 °F 87% 30.14 in 10.0 mi SE 5.8 mph - N/A   Mostly Cloudy
3:03 PM 75.2 °F 71.6 °F 89% 30.15 in 10.0 mi SE 5.8 mph - N/A   Mostly Cloudy
3:33 PM 75.2 °F 71.6 °F 89% 30.15 in 10.0 mi SE 5.8 mph - N/A   Mostly Cloudy
3:58 PM 76.1 °F 70.7 °F 83% 30.12 in 10.0 mi Variable 4.6 mph - N/A   Mostly Cloudy
4:23 PM 75.2 °F 69.8 °F 83% 30.13 in 10.0 mi Variable 4.6 mph - N/A   Overcast
4:38 PM 75.2 °F 69.8 °F 83% 30.13 in 10.0 mi SSE 5.8 mph - N/A   Overcast
4:58 PM 75.9 °F 70.2 °F 82% 30.11 in 10.0 mi East 6.9 mph - N/A   Overcast
5:08 PM 75.2 °F 71.6 °F 89% 30.12 in 10.0 mi ENE 11.5 mph - N/A   Overcast
5:58 PM 71.8 °F 71.8 °F 100% 30.11 in 10.0 mi NNE 9.2 mph - N/A   Overcast
5:59 PM 71.6 °F 71.6 °F 100% 30.13 in 10.0 mi NNE 10.4 mph - N/A Rain Light Rain
6:04 PM 71.6 °F 71.6 °F 100% 30.13 in 10.0 mi NNE 9.2 mph - N/A   Light Drizzle
6:19 PM 69.8 °F 69.8 °F 100% 30.13 in 10.0 mi NNE 8.1 mph - N/A Rain Light Rain
6:33 PM 69.8 °F 69.8 °F 100% 30.13 in 10.0 mi North 6.9 mph - N/A   Overcast
6:39 PM 69.8 °F 69.8 °F 100% 30.13 in 10.0 mi North 4.6 mph - N/A   Light Drizzle
6:48 PM 69.8 °F 69.8 °F 100% 30.13 in 10.0 mi NW 5.8 mph - N/A   Overcast
6:54 PM 69.8 °F 69.8 °F 100% 30.13 in 10.0 mi Variable 4.6 mph - N/A   Overcast
6:58 PM 69.4 °F 69.4 °F 100% 30.12 in 10.0 mi North 6.9 mph - 0.00 in   Overcast
7:28 PM 69.8 °F 69.8 °F 100% 30.13 in 10.0 mi NNE 5.8 mph - N/A   Overcast
7:53 PM 68.0 °F 68.0 °F 100% 30.13 in 9.0 mi NE 9.2 mph - N/A   Overcast
7:58 PM 68.7 °F 68.7 °F 100% 30.12 in 9.0 mi NE 8.1 mph - N/A   Overcast
8:03 PM 68.0 °F 68.0 °F 100% 30.13 in 10.0 mi ENE 9.2 mph - N/A   Overcast
8:13 PM 68.0 °F 68.0 °F 100% 30.13 in 8.0 mi NE 10.4 mph - N/A   Overcast
8:18 PM 68.0 °F 68.0 °F 100% 30.13 in 8.0 mi NE 9.2 mph - N/A   Overcast
8:33 PM 68.0 °F 68.0 °F 100% 30.14 in 8.0 mi ENE 8.1 mph - N/A   Overcast
8:58 PM 68.5 °F 68.5 °F 100% 30.14 in 8.0 mi NE 6.9 mph - N/A   Overcast
9:28 PM 68.0 °F 68.0 °F 100% 30.16 in 7.0 mi ENE 8.1 mph - N/A   Overcast
9:38 PM 68.0 °F 68.0 °F 100% 30.16 in 6.0 mi ENE 9.2 mph - N/A   Overcast
9:58 PM 67.8 °F 67.8 °F 100% 30.15 in 5.0 mi ENE 8.1 mph - N/A   Overcast
10:08 PM 68.0 °F 68.0 °F 100% 30.16 in 5.0 mi ENE 8.1 mph - N/A   Overcast
10:28 PM 68.0 °F 68.0 °F 100% 30.16 in 5.0 mi East 6.9 mph - N/A   Overcast
10:33 PM 68.0 °F 68.0 °F 100% 30.16 in 5.0 mi East 8.1 mph - N/A   Overcast
10:43 PM 68.0 °F 68.0 °F 100% 30.16 in 5.0 mi ENE 8.1 mph - N/A   Overcast
10:48 PM 68.0 °F 68.0 °F 100% 30.16 in 5.0 mi ENE 8.1 mph - N/A   Overcast
10:58 PM 67.8 °F 67.8 °F 100% 30.15 in 5.0 mi ENE 8.1 mph - N/A   Overcast
11:08 PM 68.0 °F 68.0 °F 100% 30.16 in 4.0 mi East 8.1 mph - N/A   Overcast
11:13 PM 68.0 °F 68.0 °F 100% 30.16 in 4.0 mi East 6.9 mph - N/A   Overcast
11:14 PM 68.0 °F 68.0 °F 100% 30.16 in 4.0 mi East 6.9 mph - N/A Rain Light Rain
11:19 PM 68.0 °F 68.0 °F 100% 30.16 in 3.0 mi East 6.9 mph - N/A Rain Light Rain
11:28 PM 68.0 °F 68.0 °F 100% 30.16 in 3.0 mi East 6.9 mph - N/A   Overcast
11:33 PM 68.0 °F 68.0 °F 100% 30.16 in 3.0 mi East 5.8 mph - N/A   Overcast
11:38 PM 68.0 °F 68.0 °F 100% 30.16 in 2.5 mi East 8.1 mph - N/A   Overcast
11:43 PM 68.0 °F 68.0 °F 100% 30.16 in 2.0 mi ENE 8.1 mph - N/A   Overcast
11:46 PM 68.0 °F 68.0 °F 100% 30.16 in 2.0 mi East 8.1 mph - N/A Rain Light Rain
11:58 PM 67.5 °F 67.5 °F 100% 30.14 in 2.0 mi East 5.8 mph - 0.01 in Rain Light Rain